EN

Hourly Weather Novomihaylovskiy

Today, 16 May, Sunday

Time Temperature Precipitation Wind Pressure Humidity
00:00 +19°C° 0.1 mm 0 mps 737 mmHg 81%
01:00 +20°C° 0 mm 1 mps 736 mmHg 81%
02:00 +19°C° 0 mm 1 mps 736 mmHg 82%
03:00 +19°C° 0 mm 1 mps 736 mmHg 83%
04:00 +19°C° 0 mm 1 mps 736 mmHg 82%
05:00 +19°C° 0 mm 1 mps 736 mmHg 80%
06:00 +19°C° 0 mm 1 mps 736 mmHg 79%
07:00 +21°C° 0 mm 1 mps 736 mmHg 75%
08:00 +23°C° 0 mm 2 mps 736 mmHg 71%
09:00 +24°C° 0 mm 2 mps 736 mmHg 68%
10:00 +26°C° 0 mm 3 mps 736 mmHg 64%
11:00 +27°C° 0 mm 4 mps 735 mmHg 59%
12:00 +29°C° 0 mm 4 mps 735 mmHg 55%
13:00 +29°C° 0 mm 4 mps 735 mmHg 51%
14:00 +30°C° 0 mm 4 mps 734 mmHg 47%
15:00 +30°C° 0 mm 4 mps 734 mmHg 43%
16:00 +29°C° 0 mm 4 mps 733 mmHg 48%
17:00 +28°C° 0 mm 3 mps 733 mmHg 53%
18:00 +27°C° 0 mm 3 mps 733 mmHg 57%
19:00 +25°C° 0 mm 3 mps 733 mmHg 59%
20:00 +22°C° 0 mm 3 mps 733 mmHg 61%
21:00 +20°C° 0 mm 3 mps 733 mmHg 63%
22:00 +19°C° 0 mm 3 mps 733 mmHg 62%
23:00 +18°C° 0 mm 2 mps 733 mmHg 61%

Tomorrow, 17 May, Monday

Time Temperature Precipitation Wind Pressure Humidity
00:00 +18°C° 0 mm 2 mps 732 mmHg 60%
01:00 +17°C° 0 mm 2 mps 732 mmHg 60%
02:00 +18°C° 0 mm 1 mps 732 mmHg 59%
03:00 +16°C° 0 mm 1 mps 732 mmHg 58%
04:00 +18°C° 0 mm 1 mps 732 mmHg 60%
05:00 +18°C° 0 mm 1 mps 732 mmHg 61%
06:00 +19°C° 0 mm 1 mps 732 mmHg 63%
07:00 +21°C° 0 mm 1 mps 732 mmHg 60%
08:00 +23°C° 0 mm 2 mps 732 mmHg 57%
09:00 +25°C° 0 mm 2 mps 732 mmHg 54%
10:00 +26°C° 0 mm 2 mps 733 mmHg 52%
11:00 +27°C° 0 mm 2 mps 733 mmHg 49%
12:00 +29°C° 0 mm 2 mps 733 mmHg 47%
13:00 +29°C° 0 mm 2 mps 733 mmHg 45%
14:00 +30°C° 0 mm 2 mps 733 mmHg 43%
15:00 +30°C° 0 mm 2 mps 733 mmHg 42%
16:00 +28°C° 0 mm 4 mps 733 mmHg 52%
17:00 +26°C° 0 mm 6 mps 733 mmHg 63%
18:00 +23°C° 0 mm 8 mps 733 mmHg 73%
19:00 +22°C° 0.1 mm 7 mps 734 mmHg 74%
20:00 +20°C° 0.1 mm 6 mps 734 mmHg 76%
21:00 +19°C° 0.1 mm 5 mps 735 mmHg 77%
22:00 +19°C° 0 mm 6 mps 735 mmHg 78%
23:00 +19°C° 0 mm 6 mps 734 mmHg 80%

Day after tomorrow, 18 May, Tuesday

Time Temperature Precipitation Wind Pressure Humidity
00:00 +18°C° 0 mm 7 mps 734 mmHg 81%
01:00 +19°C° 0.5 mm 6 mps 735 mmHg 83%
02:00 +17°C° 0.5 mm 6 mps 735 mmHg 86%
03:00 +17°C° 0.5 mm 6 mps 735 mmHg 88%
04:00 +17°C° 0.1 mm 6 mps 736 mmHg 87%
05:00 +16°C° 0.1 mm 5 mps 736 mmHg 87%
06:00 +16°C° 0.1 mm 5 mps 737 mmHg 86%
07:00 +17°C° 0.1 mm 5 mps 737 mmHg 82%
08:00 +19°C° 0.1 mm 5 mps 737 mmHg 79%
09:00 +19°C° 0.1 mm 5 mps 737 mmHg 75%
10:00 +20°C° 0 mm 5 mps 738 mmHg 69%
11:00 +22°C° 0 mm 5 mps 738 mmHg 63%
12:00 +23°C° 0 mm 5 mps 738 mmHg 57%
13:00 +23°C° 0 mm 4 mps 738 mmHg 57%
14:00 +23°C° 0 mm 4 mps 738 mmHg 57%
15:00 +25°C° 0 mm 4 mps 738 mmHg 57%
16:00 +24°C° 0 mm 3 mps 738 mmHg 61%
17:00 +23°C° 0 mm 2 mps 738 mmHg 65%
18:00 +23°C° 0 mm 2 mps 738 mmHg 69%
19:00 +21°C° 0 mm 2 mps 738 mmHg 72%
20:00 +19°C° 0 mm 2 mps 739 mmHg 75%
21:00 +18°C° 0 mm 2 mps 739 mmHg 77%
22:00 +17°C° 0 mm 2 mps 739 mmHg 79%
23:00 +17°C° 0 mm 2 mps 739 mmHg 81%

19 May, Wednesday

Time Temperature Precipitation Wind Pressure Humidity
00:00 +16°C° 0 mm 1 mps 739 mmHg 83%
01:00 +16°C° 0 mm 1 mps 739 mmHg 84%
02:00 +16°C° 0 mm 1 mps 739 mmHg 86%
03:00 +15°C° 0 mm 1 mps 739 mmHg 87%
04:00 +16°C° 0 mm 1 mps 739 mmHg 85%
05:00 +18°C° 0 mm 1 mps 740 mmHg 83%
06:00 +18°C° 0 mm 1 mps 740 mmHg 81%
07:00 +20°C° 0 mm 1 mps 740 mmHg 75%
08:00 +22°C° 0 mm 1 mps 740 mmHg 69%
09:00 +23°C° 0 mm 1 mps 740 mmHg 63%
10:00 +24°C° 0 mm 2 mps 740 mmHg 60%
11:00 +26°C° 0 mm 2 mps 739 mmHg 56%
12:00 +27°C° 0 mm 3 mps 739 mmHg 52%
13:00 +27°C° 0 mm 3 mps 739 mmHg 51%
14:00 +28°C° 0 mm 3 mps 739 mmHg 50%
15:00 +28°C° 0 mm 3 mps 738 mmHg 49%
16:00 +27°C° 0 mm 3 mps 738 mmHg 54%
17:00 +26°C° 0 mm 3 mps 738 mmHg 59%
18:00 +25°C° 0 mm 3 mps 738 mmHg 64%
19:00 +24°C° 0 mm 3 mps 738 mmHg 65%
20:00 +21°C° 0 mm 3 mps 738 mmHg 67%
21:00 +20°C° 0 mm 3 mps 738 mmHg 69%
22:00 +19°C° 0 mm 2 mps 738 mmHg 70%
23:00 +19°C° 0 mm 2 mps 737 mmHg 71%

20 May, Thursday

Time Temperature Precipitation Wind Pressure Humidity
00:00 +18°C° 0 mm 2 mps 737 mmHg 72%
01:00 +18°C° 0 mm 2 mps 737 mmHg 72%
02:00 +18°C° 0 mm 2 mps 737 mmHg 73%
03:00 +17°C° 0 mm 2 mps 737 mmHg 73%
04:00 +18°C° 0 mm 2 mps 737 mmHg 74%
05:00 +18°C° 0 mm 2 mps 737 mmHg 74%
06:00 +19°C° 0 mm 2 mps 737 mmHg 74%
07:00 +21°C° 0 mm 3 mps 737 mmHg 68%
08:00 +24°C° 0 mm 3 mps 737 mmHg 62%
09:00 +26°C° 0 mm 4 mps 737 mmHg 56%
10:00 +27°C° 0 mm 4 mps 737 mmHg 52%
11:00 +28°C° 0 mm 4 mps 737 mmHg 49%
12:00 +30°C° 0 mm 5 mps 737 mmHg 45%
13:00 +30°C° 0 mm 5 mps 737 mmHg 44%
14:00 +32°C° 0 mm 5 mps 736 mmHg 43%
15:00 +32°C° 0 mm 5 mps 736 mmHg 41%
16:00 +32°C° 0 mm 5 mps 736 mmHg 47%
17:00 +30°C° 0 mm 4 mps 736 mmHg 53%
18:00 +29°C° 0 mm 3 mps 736 mmHg 59%
19:00 +26°C° 0 mm 3 mps 736 mmHg 61%
20:00 +24°C° 0 mm 3 mps 736 mmHg 63%
21:00 +21°C° 0 mm 3 mps 735 mmHg 65%
22:00 +20°C° 0 mm 3 mps 735 mmHg 67%
23:00 +19°C° 0 mm 2 mps 735 mmHg 69%

21 May, Friday

Time Temperature Precipitation Wind Pressure Humidity
00:00 +18°C° 0 mm 2 mps 735 mmHg 72%
01:00 +17°C° 0 mm 2 mps 734 mmHg 73%
02:00 +17°C° 0 mm 2 mps 734 mmHg 75%
03:00 +16°C° 0 mm 2 mps 734 mmHg 77%
04:00 +17°C° 0 mm 2 mps 734 mmHg 77%
05:00 +17°C° 0 mm 2 mps 734 mmHg 77%
06:00 +18°C° 0 mm 2 mps 734 mmHg 77%
07:00 +20°C° 0 mm 2 mps 734 mmHg 72%
08:00 +23°C° 0 mm 2 mps 734 mmHg 67%
09:00 +25°C° 0 mm 2 mps 734 mmHg 62%
10:00 +27°C° 0 mm 2 mps 734 mmHg 58%
11:00 +28°C° 0 mm 2 mps 734 mmHg 55%
12:00 +30°C° 0 mm 2 mps 734 mmHg 51%
13:00 +31°C° 0 mm 2 mps 734 mmHg 50%
14:00 +31°C° 0 mm 2 mps 734 mmHg 48%
15:00 +33°C° 0 mm 3 mps 734 mmHg 47%
16:00 +30°C° 0 mm 4 mps 734 mmHg 55%
17:00 +29°C° 0 mm 5 mps 734 mmHg 64%
18:00 +27°C° 0 mm 7 mps 734 mmHg 72%
19:00 +26°C° 0 mm 7 mps 735 mmHg 76%
20:00 +23°C° 0 mm 7 mps 735 mmHg 79%
21:00 +22°C° 0 mm 7 mps 736 mmHg 83%
22:00 +21°C° 0 mm 7 mps 736 mmHg 84%
23:00 +20°C° 0 mm 7 mps 736 mmHg 84%
Show more

We Need Your Consent

Meteoprog and our Service Providers may store and access personal data such as cookies, device identifiers or other similar technologies on your device and process such data to personalise content and ads, as well as provide social media features and to analyse the traffic.

  • Store and/or access information on your device

    Cookies, device identifiers or other information can be stored or accessed on your device for the purposes indicated above.

  • Personalised ads and content, ad and content measurement, audience insights, and products development

    Ads and content can be personalised based on a profile. More data can be added to better personalise ads and content. Ad and content performance can be measured. Insights about the audience who saw the ads and content can be derived. Such data can be used to develop or improve user’s experience, systems and software.

By clicking ‘I Agree’ you will allow the use of indicated cookies, device identifiers, web beacons or other similar technologies. Your settings can be changed in the browser on your device.

For certain purposes, legitimate interests may be relied on, rather than consent. You can read more about this in our Privacy and Cookie Policy.